Погода в Литиже

Россия / Брянская область     52°18′24″N   34°48′50″E
темп.,
°C
ветер,
м/с
пор.,
м/с
влажн.,
%
обл.,
%
осадки,
мм/ч
давл.,
гПа
погр.,
м
4 марта, чт
чт400:00−2з510910 0.0 1018270
03:00−2зюз510920 0.0 1016261
06:00−2зюз612910 0.0 1013298
09:00−1зюз715850 0.0 1011487
12:00+2зюз712860 0.0 1008647
15:00+3юз712855 0.0 1006673
18:00+2зюз5129033 0.0 1004430
21:00+2з4109266 0.1 1004352
5 марта, пт
пт500:000зсз3798100 0.1 1004380
03:00−1зсз479499 0.1 1006367
06:00−1зсз3596100 0.1 1007303
09:00−1ссз3592100 0.6 1008330
12:000с2376100 0.0 1009642
15:00+1с2367100 0.1 1010879
18:00−1ссв2374100 0.1 101188
21:00−2с3679100 0.1 1014177
6 марта, сб
сб600:00−3с248392 0.0 1015160
03:00−3ссз238676 0.0 101681
06:00−4з22860 0.0 101550
09:00−4зсз589217 0.3 1016590
12:00−3зсз6766100 0.4 10171095
15:00−3зсз6872100 0.7 10171141
18:00−4ссз81170100 0.5 10191091
21:00−5сз597181 0.5 1021777
7 марта, вс
вс700:00−6з37760 0.0 1021341
03:00−6юз511710 0.0 1019388
06:00−5юз8156549 0.0 1016609
09:00−4юз10176574 0.0 1012875
12:00−1зюз121966100 0.0 10091321
15:000зюз121868100 0.0 10051486
18:000зюз101771100 0.0 10031252
21:00−1зсз91394100 0.9 1004960
8 марта, пн
пн800:00−3з51269100 0.9 10051208
03:00−4зсз6127683 1.0 1006940
06:00−5зсз6107447 0.0 10071059
09:00−5зсз697774 0.1 10091126
12:00−4зсз6869100 0.1 10101173
15:00−4сз5768100 0.3 10111087
18:00−5ссз5771100 0.1 10121047
21:00−6сз358398 0.2 1014539